BAW22 VOMM-VRMM

Flight info

Callsign BAW22
Flight time N/A
Altitude 36000
Route TEGUT2B TEGUT R457 MUGBA MUGBA2A
Aircraft B77W/H-SDE1E2E3FGHIJ2J3J4J5M1RWXY/LB1D1

Departure

Time 2026-04-21 08:39
Airport Chennai International Airport (VOMM)

Arrival

Time N/A
Airport Velana International Airport (VRMM)
Time Latitude Longitude Altitude Speed Heading
2026-04-21 08:18 12.98296 80.16178 48 ft 0 kts 158°
2026-04-21 08:28 12.98301 80.16176 52 ft 4 kts 158°
2026-04-21 08:28 12.98326 80.16165 50 ft 4 kts 150°
2026-04-21 08:28 12.98348 80.16149 52 ft 4 kts 139°
2026-04-21 08:29 12.98367 80.16130 52 ft 4 kts 127°
2026-04-21 08:29 12.98377 80.16115 52 ft 1 kts 123°
2026-04-21 08:29 12.98379 80.16113 48 ft 0 kts 123°
2026-04-21 08:31 12.98378 80.16113 48 ft 0 kts 123°
2026-04-21 08:32 12.98377 80.16116 49 ft 1 kts 123°
2026-04-21 08:32 12.98369 80.16135 50 ft 4 kts 98°
2026-04-21 08:32 12.98386 80.16159 52 ft 5 kts 25°
2026-04-21 08:32 12.98423 80.16155 49 ft 7 kts 348°
2026-04-21 08:33 12.98496 80.16146 48 ft 12 kts 12°
2026-04-21 08:33 12.98554 80.16201 52 ft 12 kts 64°
2026-04-21 08:33 12.98588 80.16283 52 ft 15 kts 69°
2026-04-21 08:33 12.98637 80.16416 53 ft 21 kts 69°
2026-04-21 08:34 12.98688 80.16555 50 ft 21 kts 69°
2026-04-21 08:34 12.98739 80.16695 53 ft 21 kts 69°
2026-04-21 08:34 12.98793 80.16834 53 ft 21 kts 68°
2026-04-21 08:34 12.98847 80.16973 47 ft 21 kts 69°
2026-04-21 08:35 12.98898 80.17111 53 ft 21 kts 69°
2026-04-21 08:35 12.98956 80.17248 54 ft 21 kts 63°
2026-04-21 08:35 12.99016 80.17384 52 ft 21 kts 68°
2026-04-21 08:35 12.99068 80.17523 51 ft 21 kts 69°
2026-04-21 08:36 12.99112 80.17636 55 ft 21 kts 63°
2026-04-21 08:36 12.99214 80.17741 55 ft 21 kts 59°
2026-04-21 08:36 12.99266 80.17880 55 ft 21 kts 69°
2026-04-21 08:36 12.99319 80.18018 53 ft 21 kts 68°
2026-04-21 08:37 12.99360 80.18161 57 ft 21 kts 86°
2026-04-21 08:37 12.99394 80.18281 50 ft 17 kts 50°
2026-04-21 08:37 12.99483 80.18368 54 ft 11 kts 41°
2026-04-21 08:37 12.99547 80.18414 55 ft 10 kts 13°
2026-04-21 08:38 12.99568 80.18382 54 ft 5 kts 257°
2026-04-21 08:38 12.99562 80.18360 56 ft 12 kts 254°
2026-04-21 08:38 12.99454 80.18057 52 ft 90 kts 249°
2026-04-21 08:38 12.99118 80.17171 50 ft 174 kts 249°
2026-04-21 08:39 12.98663 80.15889 568 ft 197 kts 249°
2026-04-21 08:39 12.98235 80.14580 1628 ft 200 kts 250°
2026-04-21 08:39 12.97776 80.13151 2208 ft 223 kts 249°
2026-04-21 08:39 12.97190 80.11553 2471 ft 253 kts 237°
2026-04-21 08:40 12.95964 80.10241 3256 ft 256 kts 213°
2026-04-21 08:40 12.94455 80.09268 4338 ft 259 kts 210°
2026-04-21 08:40 12.92871 80.08280 5355 ft 272 kts 211°
2026-04-21 08:40 12.91171 80.07228 6079 ft 302 kts 210°
2026-04-21 08:41 12.89262 80.06049 6451 ft 344 kts 210°
2026-04-21 08:41 12.87111 80.04716 7113 ft 371 kts 210°
2026-04-21 08:41 12.84883 80.03324 8026 ft 378 kts 211°
2026-04-21 08:41 12.82611 80.01902 8875 ft 386 kts 210°
2026-04-21 08:42 12.80295 80.00450 9730 ft 393 kts 210°
2026-04-21 08:42 12.77947 79.98978 10589 ft 399 kts 210°
2026-04-21 08:42 12.75563 79.97486 11451 ft 404 kts 210°
2026-04-21 08:42 12.73149 79.95977 12328 ft 409 kts 210°
2026-04-21 08:43 12.70702 79.94449 13200 ft 414 kts 210°
2026-04-21 08:43 12.68233 79.92906 14097 ft 417 kts 210°
2026-04-21 08:43 12.65782 79.91376 14960 ft 420 kts 210°
2026-04-21 08:43 12.63278 79.89812 15791 ft 424 kts 210°
2026-04-21 08:44 12.60742 79.88231 16545 ft 428 kts 210°
2026-04-21 08:44 12.58180 79.86634 17317 ft 432 kts 210°
2026-04-21 08:44 12.55606 79.85028 18088 ft 435 kts 211°
2026-04-21 08:44 12.53013 79.83412 18832 ft 437 kts 211°
2026-04-21 08:45 12.50399 79.81784 19499 ft 441 kts 211°
2026-04-21 08:45 12.47772 79.80147 20326 ft 441 kts 211°
2026-04-21 08:45 12.45155 79.78517 21124 ft 441 kts 211°
2026-04-21 08:45 12.42516 79.76874 21775 ft 444 kts 211°
2026-04-21 08:46 12.39893 79.75240 22325 ft 449 kts 211°
2026-04-21 08:46 12.37205 79.73566 22878 ft 453 kts 211°
2026-04-21 08:46 12.34495 79.71880 23430 ft 457 kts 211°
2026-04-21 08:46 12.31771 79.70184 23969 ft 460 kts 212°
2026-04-21 08:47 12.29029 79.68476 24478 ft 463 kts 212°
2026-04-21 08:47 12.26265 79.66756 25005 ft 465 kts 212°
2026-04-21 08:47 12.23496 79.65034 25562 ft 466 kts 212°
2026-04-21 08:47 12.20711 79.63303 26114 ft 467 kts 212°
2026-04-21 08:48 12.17958 79.61591 26617 ft 469 kts 212°
2026-04-21 08:48 12.15154 79.59850 27085 ft 471 kts 212°
2026-04-21 08:48 12.12354 79.58110 27573 ft 472 kts 212°
2026-04-21 08:48 12.09536 79.56360 28031 ft 474 kts 212°
2026-04-21 08:49 12.06712 79.54606 28478 ft 475 kts 212°